Overview Statistics Trail Chart Weather Telemetry Raw packets
 

This is the latest recevied weather packets stored in our database for station/object KB1WCR. If no packets are shown the sender has not sent any weather packets the latest 10 day(s).

<< 76 77 78 79 80 81 82 >>
Time Temp. Humidity Pressure Rain* Wind** Luminosity Snow
1787860694 25.56° C 82% 1016.1 hPa 0 mm - 122 W/m² -
1787860389 25.56° C 83% 1016 hPa 0 mm - 152 W/m² -
1787860089 26.11° C 80% 1016.4 hPa 0 mm - 189 W/m² -
1787859785 25.56° C 84% 1016.4 hPa 0 mm - 235 W/m² -
1787859484 26.11° C 82% 1016.3 hPa 0 mm - 370 W/m² -
1787859178 26.11° C 82% 1016.4 hPa 0 mm - 526 W/m² -
1787858875 25.56° C 82% 1016.1 hPa 0 mm - 550 W/m² -
1787858570 26.11° C 82% 1016.1 hPa 0 mm - 258 W/m² -
1787858270 26.67° C 80% 1016.3 hPa 0 mm - 604 W/m² -
1787857966 25.56° C 82% 1016 hPa 0 mm - 365 W/m² -
1787857661 26.11° C 82% 1016.2 hPa 0 mm - 534 W/m² -
1787857358 26.11° C 83% 1016.2 hPa 0 mm - 643 W/m² -
1787857055 25.56° C 85% 1016.2 hPa 0 mm - 490 W/m² -
1787856750 25° C 84% 1016.3 hPa 0 mm - 322 W/m² -
1787856445 25° C 85% 1016.1 hPa 0 mm - 394 W/m² -
1787856140 25° C 85% 1016.5 hPa 0 mm - 304 W/m² -
1787855835 24.44° C 85% 1016.5 hPa 0 mm - 351 W/m² -
1787855529 24.44° C 86% 1016.5 hPa 0 mm - 398 W/m² -
1787855220 24.44° C 86% 1016.4 hPa 0 mm - 426 W/m² -
1787854914 24.44° C 86% 1016.5 hPa 0 mm - 635 W/m² -
1787854609 25° C 84% 1016.4 hPa 0 mm - 387 W/m² -
1787854303 25° C 84% 1016.8 hPa 0 mm - 295 W/m² -
1787853998 25° C 83% 1016.5 hPa 0 mm - 597 W/m² -
1787853692 23.89° C 86% 1016.5 hPa 0 mm - 328 W/m² -
1787853392 23.89° C 85% 1016.6 hPa 0 mm - 147 W/m² -

* Rain latest hour (hover to see other rain measurements)
** Current wind speed in m/s (hover to see current wind gust speed)